Home   Weather   Huntsville   Past weeks

Flag for USA Past Weather in Huntsville, Alabama, USA — Yesterday and Last 2 Weeks

Now
59 °F

Mostly cloudy.


Feels Like: 59 °F
Forecast: 57 / 70 °F
Wind: 5 mph from East

Location: Huntsville International / Jones Field

Current Time: Feb 22, 2017 at 5:17:30 am

Latest Report: Feb 22, 2017 at 4:08 am


Visibility: 10 mi

Pressure: 29.86 "Hg

Humidity: 96%

Dew Point: 58 °F

Location of HuntsvilleLocation

Past Weather in Huntsville — Graph

°F

Huntsville Temperature Yesterday

Maximum temperature yesterday: 65 °F (at 10:53 am)
Minimum temperature yesterday: 58 °F (at 3:53 am)
Average temperature yesterday: 60 °F

High & Low Weather Summary for the Past Weeks

 TemperatureHumidityPressure
High76 °F (Feb 20, 2:53 pm)100% (Feb 8, 2:53 am)30.40 "Hg (Feb 8, 2:53 am)
Low30 °F (Feb 10, 12:53 am)18% (Feb 13, 12:53 pm)29.68 "Hg (Feb 15, 2:53 am)
Average55 °F72%30.01 "Hg
* Reported Feb 7 4:53 am — Feb 22 4:08 am, Huntsville, Weather by CustomWeather, © 2017

Note: Actual official high and low records may vary slightly from our data, if they occured in-between our weather recording intervals... More about our weather records

Advertising

Huntsville Weather History for the Previous 24 Hours

Scroll right to see more
 ConditionsComfort  
Time TempWeatherWind HumidityBarometerVisibility
4:08 am
Wed, Feb 22
59 °FMostly cloudy.5 mph96%29.86 "Hg10 mi
3:53 am59 °FMostly cloudy.3 mph96%29.85 "Hg10 mi
3:05 am59 °FLight rain. Mostly cloudy.5 mph96%29.86 "Hg10 mi
2:53 am59 °FLight rain. Mostly cloudy.3 mph96%29.85 "Hg7 mi
1:53 am59 °FMostly cloudy.3 mph96%29.86 "Hg10 mi
1:44 am59 °FMostly cloudy.3 mph96%29.88 "Hg10 mi
12:53 am58 °FOvercast.5 mph100%29.87 "Hg10 mi
12:08 am58 °FOvercast.5 mph97%29.89 "Hg8 mi
11:31 pm
Tue, Feb 21
58 °FOvercast.No wind97%29.91 "Hg10 mi
11:21 pm58 °FLight rain. Low clouds.No wind97%29.91 "Hg10 mi
11:08 pm58 °FOvercast.3 mph97%29.91 "Hg10 mi
9:53 pm58 °FLight rain. Low clouds.6 mph97%29.91 "Hg10 mi
9:10 pm59 °FLight rain. Mostly cloudy.6 mph93%29.93 "Hg10 mi
8:53 pm59 °FLight rain. Mostly cloudy.9 mph93%29.91 "Hg10 mi
7:53 pm58 °FLight rain. Overcast.10 mph97%29.90 "Hg10 mi
6:53 pm58 °FLight rain. Overcast.10 mph93%29.92 "Hg10 mi
5:53 pm58 °FLight rain. Overcast.9 mph97%29.92 "Hg10 mi
4:53 pm59 °FLight rain. Overcast.12 mph93%29.93 "Hg10 mi
3:53 pm61 °FOvercast.12 mph87%29.93 "Hg10 mi
3:35 pm61 °FLight rain. More clouds than sun.10 mph90%29.94 "Hg10 mi
2:53 pm61 °FLight rain. Mostly cloudy.12 mph90%29.93 "Hg10 mi
2:04 pm62 °FLight rain. Mostly cloudy.18 mph80%29.95 "Hg10 mi
1:53 pm62 °FLight rain. Overcast.14 mph80%29.93 "Hg10 mi
12:53 pm64 °FOvercast.20 mph73%29.93 "Hg10 mi
11:53 am65 °FMore clouds than sun.14 mph73%29.97 "Hg10 mi
10:53 am65 °FOvercast.16 mph70%30.00 "Hg10 mi
9:53 am63 °FLight rain. Mostly cloudy.10 mph75%30.01 "Hg10 mi
8:53 am62 °FOvercast.7 mph78%30.00 "Hg10 mi
7:53 am61 °FMore clouds than sun.6 mph75%30.01 "Hg10 mi
6:53 am61 °FMostly cloudy.9 mph72%29.99 "Hg10 mi
5:53 am60 °FPassing clouds.9 mph72%29.98 "Hg10 mi
Weather by CustomWeather, © 2017

See weather overviewHow to use our weather pages